[[{"header":{"parameterUnit":"m.s-1","parameterCategory":1,"la1":30.2991,"la2":30.254,"lo1":-89.0895,"lo2":-89.0444,"dy":0.0017,"dx":0.0017,"nx":28,"ny":28,"refTime":"2024-06-27T03:00:00:Z","depth":0,"parameterNumber":2,"parameterNumberName":"U-component_of_WINDS"},"data":[0,0,0,0,0,0,0,0,0,0,0,0,0,0,0,0,0,0,0,0,0,0,0,0,0,0,0,0,0,0,0,0,0,0,0,0,0,0,0,0,0,0,0,0,0,0,0,0,0,0,0,0,0,0,0,0,0,0,4.8543,4.8545,0,4.8717,4.8719,4.8721,4.8665,4.8662,4.8658,4.8654,4.8837,4.8845,4.8853,0,0,0,0,0,0,0,0,0,0,0,0,0,4.8162,4.817,4.8543,4.8545,4.8547,4.8717,4.8719,4.8722,4.8666,4.8661,4.8657,4.8653,4.8834,4.8844,4.8854,0,0,0,0,0,0,0,0,0,0,0,0,0,4.8331,4.8172,4.8542,4.854,4.8541,4.8716,4.8719,4.8722,4.8667,4.8661,4.8656,4.865,4.8831,4.8843,4.8855,4.9045,0,0,4.8893,4.8899,0,0,0,0,0,0,0,0,4.8322,4.8345,4.8538,4.854,4.8542,4.8664,4.8652,4.883,4.8668,4.8619,4.8654,4.8648,4.8784,4.88,4.8845,4.9053,4.9061,4.8895,4.8902,4.8908,4.8911,0,0,0,0,0,0,0,4.831,4.8338,4.8612,4.8541,4.8543,4.853,4.8548,4.8685,4.8731,4.8623,4.862,4.8641,4.8784,4.8833,4.8849,4.9064,4.8894,4.8905,4.8913,4.8918,4.943,4.9436,0,0,0,0,0,0,4.8297,4.8328,4.8606,4.8617,4.8416,4.8541,4.8561,4.863,4.8729,4.8739,4.8645,4.8637,4.8815,4.8834,4.8855,4.9079,4.8907,4.8919,4.8926,4.9424,4.9431,4.9438,0,0,0,0,0,0,4.8289,4.8322,4.8599,4.8472,4.8506,4.8554,4.8632,4.8637,4.8686,4.8746,4.8754,4.8687,4.8811,4.8838,4.8996,4.9085,4.8925,4.8936,4.9417,4.9426,4.9435,4.9531,0,0,0,0,0,0,4.8278,4.832,4.8392,4.8474,4.8513,4.8738,4.8638,4.8644,4.8707,4.8698,4.8787,4.8797,4.8809,4.8978,4.9009,4.9099,4.8946,4.9409,4.9421,4.9432,4.952,4.9542,4.9561,0,0,0,0,0,4.8265,4.8415,4.8396,4.843,4.8605,4.8743,4.8765,4.8775,4.8714,4.8787,4.8825,4.8794,4.9071,4.8995,4.9029,4.9124,4.9404,4.9418,4.9431,4.9511,4.9538,4.9561,0,0,0,0,0,0,4.8345,4.8425,4.8406,4.8586,4.8658,4.8733,4.8826,4.8804,4.8895,4.8884,4.8893,4.8913,4.9075,4.9116,4.903,4.931,4.9228,4.9249,4.9277,4.9303,4.9323,4.9309,4.8956,0,0,0,0,0,4.8383,4.8488,4.8553,4.8706,4.8743,4.8778,4.8839,4.8839,4.8915,4.8945,4.8995,4.907,4.9172,4.9241,4.934,4.9526,4.9543,4.9609,4.9629,4.9646,4.9663,4.976,4.9789,4.9483,4.9483,4.9483,0,0,4.8464,4.8521,4.8587,4.8724,4.8779,4.8887,4.8804,4.8923,4.9003,4.8964,4.9115,4.9154,4.9238,4.941,4.9488,4.9449,4.9751,4.9663,4.9676,4.9685,4.9777,4.9806,4.9832,4.9492,4.9491,4.9489,0,0,4.8666,4.8721,4.8851,4.8908,4.8991,4.9013,4.9045,4.9123,4.9146,4.9298,4.9269,4.9365,4.9544,4.9603,4.9656,4.9876,4.9849,4.9908,5.0015,5.0109,5.0133,5.0155,5.0229,5.0256,4.9926,4.9926,4.9926,0,4.8756,4.8916,4.8922,4.9041,4.9101,4.9068,4.9199,4.9254,4.9367,4.9408,4.9362,4.9582,4.9637,4.982,4.9873,4.9919,4.9953,4.9897,5.0129,5.0151,5.0171,5.0241,5.027,4.9932,4.9932,4.9931,4.993,0,4.9021,4.9132,4.9228,4.9334,4.9404,4.953,4.9553,4.9624,4.9618,4.9644,4.9797,4.9861,4.9969,5.0014,5.0011,5.0196,5.0168,5.0126,5.0043,5.0206,5.0272,5.03,4.9941,4.9939,4.9937,4.9936,0,0,4.9279,4.9383,4.9417,4.9463,4.9551,4.9638,4.9761,4.9864,4.9923,5.0002,5.0103,5.0253,5.0213,5.0274,5.0277,5.036,5.0524,5.0307,5.0309,5.0342,5.0727,5.0755,5.0787,5.0507,5.0513,5.0517,5.0718,0,4.9484,4.9697,4.9704,4.9899,5.0,4.9969,5.0075,5.014,5.0168,5.0257,5.0288,5.0392,5.0334,5.037,5.0451,5.0487,5.0601,5.0473,5.06,5.0604,5.0576,5.0822,5.0854,5.1041,5.0745,5.0749,5.0753,0,4.9753,4.9835,5.0039,5.0108,5.0151,5.0247,5.034,5.0427,5.0499,5.0513,5.0579,5.0568,5.0692,5.0606,5.0776,5.0688,5.0741,5.0766,5.0773,5.0783,5.0686,5.0835,5.1101,5.1128,5.0794,5.0791,5.0788,0,4.9914,5.0078,5.0219,5.026,5.0346,5.0412,5.0452,5.0518,5.0579,5.0661,5.07,5.0797,5.0849,5.0924,5.0939,5.0876,5.1107,5.1024,5.112,5.1119,5.1168,5.1164,5.1443,5.1208,5.1207,5.1207,5.1206,0,5.0141,5.0267,5.0292,5.0379,5.0518,5.0524,5.0661,5.0695,5.0754,5.0846,5.0827,5.0914,5.093,5.1021,5.1034,5.1169,5.1195,5.1208,5.1209,5.1208,5.1205,5.124,5.1226,5.1214,5.1213,5.1211,5.121,0,5.0345,5.0368,5.0519,5.0587,5.0606,5.0705,5.0762,5.0845,5.0869,5.0985,5.1013,5.1051,5.1156,5.1179,5.1305,5.1313,5.1473,5.1464,5.1448,5.1446,5.1539,5.1528,5.1847,5.1887,5.1629,5.1632,5.1634,0,5.0487,5.0582,5.0658,5.0717,5.0758,5.0855,5.0915,5.0925,5.0988,5.1075,5.1147,5.1249,5.1331,5.15,5.1539,5.1634,5.1624,5.1729,5.1638,5.1632,5.1621,5.1613,5.1621,5.1746,5.1748,5.1751,5.1753,0,5.0735,5.074,5.0827,5.0917,5.0989,5.1061,5.113,5.118,5.1198,5.1271,5.1376,5.1439,5.1565,5.1666,5.176,5.18,5.1779,5.1781,5.1807,5.1805,5.179,5.1795,5.1491,5.1773,5.1771,5.177,5.1768,5.1768,5.0909,5.099,5.1054,5.1151,5.1203,5.1266,5.1345,5.1377,5.1465,5.1566,5.1567,5.1681,5.1748,5.1872,5.1917,5.2006,5.1974,5.2013,5.2023,5.2032,5.2038,5.1778,5.2024,5.2024,5.2023,5.2023,5.2022,0,5.1152,5.1191,5.128,5.1374,5.1449,5.1421,5.1495,5.1559,5.1659,5.1723,5.1802,5.1922,5.2018,5.2063,5.2158,5.2221,5.2213,5.2245,5.2239,5.2247,5.2064,5.2029,5.2249,5.2249,5.2249,5.2249,5.2249,5.2249,5.1287,5.142,5.1433,5.1591,5.163,5.1739,5.1783,5.1841,5.189,5.2023,5.2102,5.213,5.2186,5.2284,5.237,5.2381,5.2415,5.2451,5.2457,5.2284,5.2261,5.2239,5.2206,5.246,5.246,5.2633,5.2634,5.2636]},{"header":{"parameterUnit":"m.s-1","parameterCategory":1,"la1":30.2991,"la2":30.254,"lo1":-89.0895,"lo2":-89.0444,"dy":0.0017,"dx":0.0017,"nx":28,"ny":28,"refTime":"2024-06-27T03:00:00:Z","depth":0,"parameterNumber":3,"parameterNumberName":"V-component_of_WINDS"},"data":[0,0,0,0,0,0,0,0,0,0,0,0,0,0,0,0,0,0,0,0,0,0,0,0,0,0,0,0,0,0,0,0,0,0,0,0,0,0,0,0,0,0,0,0,0,0,0,0,0,0,0,0,0,0,0,0,0,0,4.369,4.3691,0,4.3746,4.3747,4.3747,4.3686,4.3683,4.3681,4.3679,4.3732,4.3735,4.3739,0,0,0,0,0,0,0,0,0,0,0,0,0,4.3526,4.3529,4.369,4.3691,4.3692,4.3746,4.3747,4.3747,4.3686,4.3683,4.368,4.3678,4.3731,4.3735,4.3739,0,0,0,0,0,0,0,0,0,0,0,0,0,4.3591,4.353,4.369,4.3668,4.3666,4.3746,4.3747,4.3748,4.3687,4.3683,4.368,4.3676,4.3729,4.3734,4.374,4.3843,0,0,4.3756,4.3759,0,0,0,0,0,0,0,0,4.3587,4.3597,4.367,4.3669,4.3668,4.3705,4.3708,4.378,4.3688,4.3679,4.3679,4.3675,4.3726,4.3731,4.3749,4.3845,4.3848,4.3757,4.376,4.3762,4.3764,0,0,0,0,0,0,0,4.3583,4.3594,4.3712,4.3671,4.367,4.3653,4.3659,4.3721,4.3721,4.3679,4.3675,4.3683,4.3724,4.3744,4.375,4.3849,4.3757,4.3761,4.3765,4.3767,4.403,4.4034,0,0,0,0,0,0,4.3581,4.3591,4.371,4.3714,4.3618,4.3659,4.3665,4.3697,4.372,4.372,4.3686,4.368,4.3737,4.3744,4.3751,4.3872,4.3762,4.3767,4.377,4.4026,4.4031,4.4035,0,0,0,0,0,0,4.3578,4.3593,4.3708,4.3651,4.3665,4.3666,4.3702,4.37,4.3719,4.3725,4.3724,4.3706,4.3734,4.3744,4.382,4.3873,4.377,4.3775,4.4022,4.4028,4.4033,4.4116,0,0,0,0,0,0,4.3574,4.3592,4.3632,4.3653,4.3668,4.3778,4.3705,4.3703,4.3729,4.3722,4.3744,4.3744,4.3732,4.3813,4.3826,4.3879,4.3779,4.4017,4.4025,4.4031,4.4109,4.4124,4.4137,0,0,0,0,0,4.3568,4.3653,4.3635,4.3649,4.3719,4.3781,4.379,4.3775,4.3734,4.3774,4.3777,4.3744,4.3866,4.3821,4.3835,4.3891,4.4014,4.4023,4.4031,4.4102,4.4121,4.4137,0,0,0,0,0,0,4.3637,4.3655,4.3635,4.373,4.3755,4.3771,4.382,4.3796,4.3832,4.3823,4.3802,4.3808,4.3889,4.3897,4.3848,4.3991,4.3933,4.3945,4.3982,4.4,4.4014,4.4009,4.3783,0,0,0,0,0,4.3664,4.3715,4.3727,4.3809,4.3823,4.382,4.3846,4.3833,4.3857,4.3867,4.3876,4.39,4.3943,4.3972,4.4013,4.411,4.4112,4.4155,4.4169,4.4181,4.419,4.424,4.4259,4.4063,4.4063,4.4063,0,0,4.3719,4.3735,4.3768,4.3823,4.3841,4.3892,4.3829,4.3886,4.3923,4.3875,4.3948,4.3956,4.398,4.4068,4.4106,4.4077,4.4245,4.4191,4.4201,4.4204,4.4251,4.427,4.4286,4.4069,4.4068,4.4067,0,0,4.3845,4.3863,4.3932,4.3952,4.398,4.3977,4.3994,4.4014,4.4017,4.4091,4.4055,4.4098,4.4175,4.4193,4.4213,4.4345,4.4315,4.4359,4.4432,4.4481,4.4497,4.451,4.4556,4.4573,4.4369,4.4369,4.4369,0,4.3909,4.3986,4.3971,4.4031,4.4055,4.4016,4.4085,4.4104,4.4143,4.416,4.4127,4.4221,4.4235,4.4325,4.4357,4.4375,4.4392,4.4356,4.4496,4.451,4.4522,4.4565,4.4582,4.4374,4.4374,4.4373,4.4373,0,4.4063,4.4117,4.4169,4.421,4.424,4.4304,4.4297,4.433,4.4314,4.4314,4.4388,4.4403,4.4445,4.4466,4.4451,4.4554,4.4534,4.45,4.444,4.4546,4.4586,4.4602,4.4381,4.438,4.4378,4.4377,0,0,4.4233,4.4264,4.4284,4.4301,4.4329,4.4369,4.4431,4.4474,4.4501,4.4529,4.4579,4.4644,4.4612,4.4634,4.462,4.4664,4.4765,4.4623,4.4623,4.4647,4.4877,4.4902,4.4922,4.4746,4.4749,4.4752,4.4874,0,4.4358,4.4467,4.4454,4.4557,4.4605,4.4568,4.4622,4.4644,4.4646,4.4686,4.4687,4.4733,4.4688,4.47,4.4742,4.4744,4.4811,4.4735,4.479,4.4792,4.4783,4.4943,4.497,4.5085,4.489,4.4893,4.4895,0,4.4518,4.4554,4.4662,4.4681,4.4701,4.4749,4.4786,4.4826,4.485,4.4848,4.4873,4.4851,4.4911,4.4852,4.4933,4.4882,4.4903,4.4908,4.4912,4.4915,4.4849,4.4949,4.5121,4.5138,4.492,4.4918,4.4916,0,4.463,4.4704,4.4778,4.4794,4.4819,4.4853,4.4865,4.4885,4.4911,4.4944,4.496,4.4998,4.5019,4.5048,4.5037,4.4995,4.5119,4.506,4.5118,4.5118,4.5144,4.5142,4.5321,4.5161,4.5161,4.5161,4.516,0,4.477,4.4836,4.4828,4.4873,4.4946,4.4931,4.5003,4.501,4.5029,4.5073,4.5043,4.5085,4.5068,4.5109,4.51,4.5167,4.5177,4.5176,4.5172,4.5178,4.5178,4.519,4.5181,4.5165,4.5164,4.5163,4.5163,0,4.4906,4.4903,4.498,4.4998,4.5004,4.5057,4.5071,4.5113,4.5112,4.5169,4.5181,4.518,4.5226,4.5218,4.5269,4.5263,4.5346,4.5334,4.5339,4.5335,4.5393,4.5387,4.5584,4.5609,4.5435,4.5437,4.5438,0,4.4994,4.5045,4.5068,4.5097,4.5111,4.5157,4.5184,4.517,4.5199,4.5229,4.5266,4.531,4.5344,4.5419,4.5421,4.546,4.5447,4.5513,4.5452,4.5455,4.5445,4.5442,4.5446,4.5525,4.5527,4.5528,4.553,0,4.5151,4.5147,4.5188,4.5227,4.526,4.5291,4.5318,4.5342,4.5331,4.5364,4.5411,4.5438,4.549,4.5533,4.5568,4.5578,4.5552,4.5549,4.5564,4.5569,4.5569,4.5568,4.537,4.5544,4.5543,4.5542,4.5541,4.5541,4.5265,4.5307,4.5331,4.5376,4.5395,4.5421,4.5461,4.5466,4.5506,4.5548,4.5537,4.559,4.5611,4.5656,4.567,4.571,4.5685,4.5707,4.5712,4.5718,4.5724,4.5565,4.5717,4.5716,4.5716,4.5715,4.5715,0,4.5418,4.5431,4.5474,4.5513,4.5548,4.5522,4.5551,4.5581,4.5629,4.5651,4.5686,4.5739,4.5781,4.5787,4.5825,4.5856,4.5845,4.5867,4.5863,4.5865,4.5745,4.5727,4.5875,4.5875,4.5875,4.5875,4.5875,4.5875,4.5502,4.5573,4.5572,4.5651,4.5663,4.5716,4.5734,4.5757,4.5775,4.5836,4.5871,4.5875,4.5891,4.593,4.5966,4.5967,4.5981,4.6008,4.6003,4.589,4.5874,4.5859,4.5842,4.6012,4.6012,4.612,4.6121,4.6122]}]]